STARLINK-1452 (45669 NORAD) Tracking and Keplerian Element Data

This shows tracking and keplerian element data for the satellite.

Feedback or suggestion? Click here.




ElementValue
Catalog45669
NameSTARLINK-1452
Epoch Orbit1058
Epoch Day218.91667824
Epoch Year2020
RAAN232.491
Inclination53
Eccentricity0.0001171
Argument of Perigee90.2479
Mean Anonmoly190.3598
Mean Motion15.05584378
Decay Rate-8.125E-05
L11 45669U 20035N 20218.91667824 -.00008125 00000-0 -53906-3 0 9990
L22 45669 53.0000 232.4910 0001171 90.2479 190.3598 15.05584378 10587

Live tracking and technical data element details for STARLINK-1452 (NORAD 45669). STARLINK-1452 can be tracked NOW for your location showing map with azimuth and elevation plus other details from your city location.

Track the satellite on the map from your city or location and see movement details for azimuth, elevation, latitude, longitude, range, height, and movement on the map or in text.







IsCatalogInMostPopularTable: catalog: 45669, numindb: 9
Update: records affected: 1



GetName: 45669 STARLINK-1452

Hit Count: updated at: Sat, 08 Aug 2020 01:01:50 GMT